Overview Statistics Trail Chart Weather Telemetry Raw packets
 

This is the latest recevied weather packets stored in our database for station/object SV9TNF-55. If no packets are shown the sender has not sent any weather packets the latest 10 day(s).

<< 47 48 49 50 51 52 53 >>
Time Temp. Humidity Pressure Rain* Wind** Luminosity Snow
1787933190 23.89° C 47% 1014.6 hPa 0 mm 3.58 m/s, 292° - -
1787932589 23.89° C 47% 1014.5 hPa 0 mm 3.58 m/s, 292° - -
1787931989 24.44° C 48% 1014.5 hPa 0 mm 3.13 m/s, 292° - -
1787931389 24.44° C 47% 1014.3 hPa 0 mm 3.13 m/s, 292° - -
1787930789 24.44° C 48% 1014.3 hPa 0 mm 3.13 m/s, 292° - -
1787930189 24.44° C 48% 1014.4 hPa 0 mm 3.58 m/s, 292° - -
1787929589 24.44° C 47% 1014.3 hPa 0 mm 4.02 m/s, 292° - -
1787928988 24.44° C 46% 1014.2 hPa 0 mm 4.02 m/s, 292° - -
1787928388 24.44° C 46% 1014.3 hPa 0 mm 4.92 m/s, 292° - -
1787927788 25° C 46% 1014.4 hPa 0 mm 4.02 m/s, 292° - -
1787927188 25° C 43% 1014.3 hPa 0 mm 4.92 m/s, 292° - -
1787926588 25° C 48% 1014.3 hPa 0 mm 4.02 m/s, 292° - -
1787925988 25° C 49% 1014.4 hPa 0 mm 4.92 m/s, 292° - -
1787925388 25.56° C 44% 1014.4 hPa 0 mm 4.47 m/s, 292° - -
1787924788 25.56° C 44% 1014.4 hPa 0 mm 4.47 m/s, 315° - -
1787924188 25.56° C 44% 1014.5 hPa 0 mm 4.92 m/s, 292° - -
1787923588 25.56° C 45% 1014.5 hPa 0 mm 4.47 m/s, 292° - -
1787922988 25.56° C 44% 1014.6 hPa 0 mm 4.92 m/s, 292° - -
1787922387 25.56° C 44% 1014.6 hPa 0 mm 4.47 m/s, 292° - -
1787921787 25.56° C 44% 1014.7 hPa 0 mm 4.92 m/s, 292° - -
1787921187 25.56° C 45% 1014.7 hPa 0 mm 4.47 m/s, 315° - -
1787920587 26.11° C 43% 1014.7 hPa 0 mm 5.36 m/s, 292° - -
1787919987 26.11° C 44% 1014.8 hPa 0 mm 4.92 m/s, 292° - -
1787919387 26.11° C 44% 1014.8 hPa 0 mm 4.47 m/s, 292° - -
1787918787 26.11° C 42% 1014.9 hPa 0 mm 5.36 m/s, 292° - -

* Rain latest hour (hover to see other rain measurements)
** Current wind speed in m/s (hover to see current wind gust speed)